Dewpoint
52 52 53 52 50 51 52 54 53 56 55 56 56 56 54 54 53 55 46 37 38 58 61 57 52 49 38 33 33 34 27 20 14 18 31 36 39 40 40 37 34 34 35 35 36
51 52 51 50 50 49 50 53 54 54 55 56 56 56 54 52 52 50 49 46 46 60 53 48 46 43 31 31 32 30 26 21 23 30 34 35 37 38 36 37 35 33 33 33 33
50 51 51 50 49 50 49 50 54 54 55 56 57 55 54 52 48 33 47 46 47 56 52 49 44 33 29 32 30 29 22 23 33 34 35 34 32 34 35 31 29 29 29 30 30
49 50 49 50 49 49 49 49 52 54 54 55 56 55 53 54 8 39 49 47 51 55 52 46 35 30 28 29 30 25 25 25 34 34 33 32 31 29 29 28 28 28 28 29 28
48 49 48 48 49 49 49 49 52 54 54 55 56 54 53 45 39 42 55 52 56 50 49 44 32 29 27 28 30 27 28 33 33 33 31 31 30 29 27 27 27 27 27 26 26
48 47 48 48 48 49 49 49 52 54 54 55 55 56 50 32 35 49 51 54 46 39 47 39 34 30 27 27 28 27 31 31 32 32 32 30 30 30 27 27 26 26 25 25 24
47 47 47 47 48 48 49 51 53 54 54 54 55 54 48 36 44 52 51 48 44 37 40 41 35 29 27 23 27 25 30 32 31 31 30 28 27 27 26 25 24 24 24 23 23
46 46 46 46 47 48 49 54 53 53 54 54 55 51 39 39 42 50 48 45 47 41 35 39 34 28 26 26 23 23 24 25 31 31 30 26 24 26 25 24 22 22 22 22 21
46 45 45 45 47 48 50 54 53 53 53 54 52 50 28 36 40 45 45 42 47 41 36 33 29 27 26 24 21 21 18 20 28 32 30 26 24 24 24 22 21 20 20 20 20
43 44 44 45 46 47 50 54 53 53 53 53 50 43 38 29 41 45 39 42 37 33 30 29 29 25 25 24 17 18 18 20 26 28 26 24 23 22 22 21 20 19 18 18 18
43 44 44 44 46 47 51 52 48 46 47 38 38 32 30 33 42 39 35 32 32 29 27 29 25 24 24 24 22 20 19 19 27 26 24 23 22 21 20 19 18 18 17 16 16
43 43 44 44 46 47 49 49 45 43 33 41 43 38 33 38 37 36 34 29 29 27 27 27 24 26 25 25 24 23 21 25 25 24 23 21 20 20 19 18 17 16 15 15 15
42 43 44 45 45 46 47 49 49 45 35 35 37 36 31 32 35 35 34 30 28 25 26 24 21 25 25 25 23 23 21 26 24 22 21 20 19 18 16 15 14 14 14 13 13
44 44 44 45 43 46 40 47 47 44 25 26 33 33 30 30 29 36 35 29 28 24 26 25 24 23 26 23 24 22 22 26 23 23 21 22 19 17 15 12 12 12 12 12 11
44 47 44 44 46 44 46 50 39 41 8 28 33 34 31 28 30 31 32 29 26 26 25 24 24 25 23 24 23 21 25 25 24 23 21 21 20 16 13 11 10 10 10 10 8
44 47 44 44 46 46 48 49 43 25 11 29 31 30 28 28 29 30 29 30 29 25 26 24 29 25 24 25 23 24 25 26 25 22 20 21 21 16 14 14 10 9 8 7 5
44 47 46 48 42 38 48 44 26 19 23 28 29 30 27 29 28 27 28 27 25 23 23 26 26 27 28 25 27 25 23 21 20 20 18 22 21 15 12 11 10 8 7 6 4
43 46 48 48 35 41 48 38 19 18 29 31 30 29 26 28 27 27 26 26 27 26 24 23 22 26 27 25 24 25 22 20 16 19 20 22 19 13 11 10 8 7 4 3 3
44 46 40 34 38 46 41 29 25 29 31 32 29 28 28 28 27 25 25 24 26 29 22 23 23 25 28 28 26 25 24 26 22 22 19 14 11 15 10 9 7 5 4 2 2
41 43 30 39 47 47 39 27 27 30 32 31 28 27 27 27 26 25 24 25 25 23 25 25 23 24 25 27 27 27 27 23 24 20 18 15 10 11 11 9 7 5 4 3 3
41 37 29 47 47 42 33 29 28 29 30 30 27 26 28 28 28 26 26 20 17 20 20 22 24 19 24 20 23 25 25 25 25 22 17 14 14 11 11 9 8 6 4 4 4
37 27 26 40 35 32 29 21 22 24 24 31 30 26 19 23 28 25 24 20 18 14 22 18 18 19 19 18 17 17 20 22 22 20 20 16 11 9 12 9 7 4 4 6 5
20 20 29 32 29 28 21 21 19 21 20 22 31 27 28 22 24 17 16 19 21 18 17 13 16 17 17 16 16 16 16 19 19 20 19 18 11 8 8 7 6 6 7 7 7
19 11 23 31 25 25 21 21 19 17 17 13 19 19 17 29 26 17 15 18 19 21 24 19 15 15 18 16 16 14 12 14 15 19 17 12 5 7 7 6 6 6 6 7 5
19 11 18 19 21 24 27 19 17 17 14 12 11 24 28 26 25 24 21 15 14 18 16 18 11 13 13 13 12 12 12 11 9 9 12 9 6 6 6 4 2 4 4 5 4
16 15 18 12 13 12 15 16 16 14 12 10 9 11 26 26 27 24 21 24 25 13 9 16 15 9 12 9 8 8 9 9 8 7 6 6 6 4 3 2 3 4 4 5 4
28 27 21 13 10 10 11 11 13 13 15 15 12 12 12 14 16 20 23 21 17 17 12 15 14 5 4 5 3 -6 5 7 6 6 7 3 5 3 3 3 1 1 2 3 3
Wind_Speed
13 13 12 11 11 10 11 10 9 9 8 10 8 9 7 7 7 3 11 11 9 12 11 9 6 6 5 3 2 2 1 5 3 11 9 3 10 11 14 20 15 12 15 9 15
14 13 12 11 11 10 9 11 8 8 8 6 9 8 7 6 5 12 14 12 12 14 11 17 15 9 7 6 3 2 1 3 2 14 14 12 16 10 12 16 15 13 20 18 19
15 14 13 12 12 11 9 10 9 7 7 7 7 9 7 6 3 10 20 21 18 18 10 9 10 6 5 6 5 5 2 3 14 23 16 18 22 10 8 19 15 11 16 18 25
15 15 14 13 12 11 10 10 10 6 6 6 7 9 10 4 8 2 6 26 17 18 12 11 8 9 6 9 8 6 4 3 2 8 7 10 11 21 24 12 14 16 16 24 28
17 16 15 14 13 12 10 10 10 6 6 7 9 11 6 4 9 6 1 23 16 18 15 13 11 8 10 9 11 7 9 14 23 33 31 37 29 21 24 17 18 20 25 25 24
18 17 16 15 14 13 11 10 9 5 7 9 10 10 1 7 4 5 18 17 15 17 14 9 11 9 9 8 13 11 19 27 21 21 9 25 14 8 13 16 21 23 23 23 24
18 17 17 16 15 14 13 11 10 5 8 9 10 8 3 13 3 10 19 15 14 16 17 10 4 10 6 6 11 12 16 18 12 11 13 20 21 16 14 20 22 21 20 22 23
18 18 17 18 17 16 14 16 2 8 10 10 10 4 7 4 3 7 7 6 9 10 4 10 7 10 2 1 4 12 17 10 8 12 8 4 7 11 11 21 19 18 17 19 22
19 18 17 16 17 15 13 12 5 10 9 10 6 1 6 3 6 6 9 11 12 9 5 6 6 3 3 5 5 3 12 10 10 6 7 6 12 11 12 20 18 15 15 16 18
19 19 17 15 14 13 13 5 10 10 6 5 1 2 7 5 6 9 6 15 7 12 9 6 3 7 5 10 26 19 10 8 12 4 18 30 23 15 14 20 16 14 13 15 19
20 19 17 15 12 9 3 6 6 3 7 8 11 4 1 1 6 8 11 9 5 8 9 6 11 23 19 14 5 12 9 12 7 16 17 23 21 14 13 17 15 13 13 14 17
22 19 16 13 10 9 2 3 2 2 6 19 9 12 4 4 8 12 14 8 9 17 8 6 21 15 11 11 15 5 6 9 16 14 17 20 18 11 10 13 13 13 13 12 13
22 19 14 9 7 4 5 9 3 13 3 5 15 7 6 5 7 19 21 7 9 13 16 14 8 17 16 13 17 12 12 20 13 16 18 24 7 6 10 15 14 14 13 13 13
21 17 9 4 2 3 6 11 11 4 3 6 11 7 9 7 4 9 15 8 6 21 13 6 12 19 15 20 15 16 13 23 28 14 9 17 9 7 14 11 11 11 11 11 12
19 14 5 9 3 4 1 7 7 1 4 7 7 2 10 10 8 6 5 3 12 11 10 13 11 9 17 17 15 9 19 27 23 12 10 14 3 2 17 10 10 10 11 11 12
18 14 3 4 3 8 12 4 4 3 9 6 7 9 12 6 3 4 5 2 2 6 3 10 2 7 11 6 16 12 12 6 7 6 13 20 14 10 16 14 15 11 11 11 11
17 11 5 3 1 5 4 3 5 7 0 5 6 11 14 8 7 8 20 17 11 10 10 4 4 2 4 6 5 11 17 7 8 11 9 15 17 3 7 19 21 18 13 11 11
16 6 5 5 4 5 3 1 6 4 1 2 5 13 11 12 6 10 17 20 8 4 8 14 9 10 5 6 8 15 20 11 12 11 8 9 9 4 13 18 18 17 15 13 12
11 1 1 3 3 2 7 9 5 1 3 5 8 11 5 8 6 8 16 19 11 8 8 13 10 1 2 2 6 11 17 5 5 2 6 7 4 3 15 17 18 16 14 12 10
2 2 2 1 3 2 6 8 6 2 0 1 1 8 13 17 9 13 17 3 8 3 2 5 5 1 2 1 0 4 6 7 3 10 9 5 6 6 26 22 19 16 13 11 9
3 2 2 2 1 4 11 4 1 0 1 4 4 3 2 9 12 11 14 1 2 3 3 4 3 2 3 2 5 4 6 4 5 5 8 8 6 4 25 25 21 16 13 11 9
2 2 3 2 4 2 8 1 1 1 3 4 3 2 3 5 8 9 14 2 0 2 9 2 5 5 3 2 4 1 2 3 12 8 2 2 5 10 20 21 21 16 13 10 10
2 1 2 1 3 5 1 2 1 2 2 3 6 4 4 0 4 3 4 2 1 3 9 8 4 6 1 2 1 2 2 0 3 2 8 9 5 6 19 19 15 17 12 11 9
2 1 2 1 1 2 5 6 5 1 2 2 2 2 5 5 2 5 4 0 1 4 6 5 6 4 15 3 5 7 3 3 2 8 8 5 15 14 16 20 15 12 11 11 9
6 2 1 2 1 3 2 1 4 6 3 2 3 9 8 8 5 7 5 2 3 1 3 4 6 7 10 7 8 8 6 3 4 3 5 11 12 25 21 20 15 10 11 11 8
4 3 6 1 5 4 2 7 9 4 4 5 6 3 9 7 7 11 10 9 6 1 3 3 7 5 6 8 9 10 9 14 11 10 14 13 6 8 9 11 11 12 10 10 10
5 3 1 3 2 1 2 2 5 9 1 2 8 6 6 2 9 14 11 10 6 8 8 9 13 8 6 7 6 2 1 4 5 4 6 6 7 19 13 13 12 10 8 9 9
Wind_Direction
342 340 339 339 331 332 331 317 292 287 251 240 200 201 210 230 239 209 230 215 194 177 146 152 165 142 120 159 212 146 195 215 194 142 145 360 104 57 58 80 56 56 65 37 9
342 336 339 333 330 327 329 321 302 273 257 242 195 178 190 214 233 247 235 222 207 169 155 167 174 146 154 167 190 181 167 244 282 127 129 82 80 83 73 66 61 63 39 34 34
340 337 340 336 331 327 330 317 313 276 245 228 203 171 162 191 246 245 213 210 207 194 174 171 150 141 154 145 186 159 222 5 64 112 115 103 70 34 98 54 39 44 26 31 38
340 340 339 336 333 328 328 319 312 292 231 212 174 149 173 182 194 250 184 196 195 166 158 163 158 165 163 167 188 160 238 47 32 112 88 80 87 70 67 89 70 56 46 42 39
339 341 336 334 334 329 326 319 303 284 217 196 164 172 144 202 253 280 149 170 161 168 173 175 165 163 166 186 176 189 100 70 94 88 86 86 79 97 80 81 70 59 50 47 43
337 337 334 334 335 330 327 317 301 275 197 182 171 175 102 219 241 173 140 153 163 169 183 171 193 193 181 188 179 190 116 121 108 109 90 97 73 82 79 83 64 57 52 47 44
338 336 333 333 333 328 332 318 289 231 177 169 178 164 230 230 4 155 160 180 172 172 179 194 214 184 170 152 209 129 118 111 137 128 130 100 41 84 97 80 66 58 54 50 43
338 334 332 330 333 335 333 330 297 162 154 162 177 161 247 246 162 146 146 149 165 162 132 197 208 206 201 210 124 175 141 149 213 168 149 118 127 96 87 84 71 62 56 53 46
334 332 330 328 329 329 332 333 107 123 145 164 124 166 253 322 176 183 153 170 167 166 214 165 170 198 160 158 137 170 186 141 181 12 122 106 137 117 93 86 80 66 55 55 49
332 330 326 323 324 326 320 304 124 126 155 142 314 231 256 219 162 164 176 142 148 148 127 153 133 186 169 178 190 185 163 156 157 108 74 98 114 101 90 87 84 73 59 55 53
329 326 321 315 314 309 351 138 120 120 229 190 193 223 214 161 123 168 147 118 107 123 160 166 187 205 198 193 140 165 162 144 96 122 78 106 114 109 100 88 85 77 66 57 55
327 322 315 309 307 303 285 215 185 298 236 236 237 252 283 170 144 168 150 144 159 174 140 152 220 216 202 193 204 168 153 102 84 104 93 117 104 102 97 93 93 89 74 63 56
326 318 309 301 292 286 231 213 92 19 262 209 207 210 204 164 176 180 170 147 167 170 177 182 220 202 196 203 215 225 201 170 153 100 82 119 108 128 105 103 96 86 84 69 60
328 315 304 273 238 195 233 259 280 277 310 210 179 219 166 153 207 182 174 151 162 193 179 224 223 181 195 216 194 218 212 154 146 160 177 215 212 176 153 120 104 98 85 76 66
332 320 285 209 336 200 321 315 217 118 251 143 157 136 150 164 134 169 156 167 178 172 172 214 203 182 195 208 180 217 148 155 166 159 130 200 224 127 149 168 147 123 104 88 74
338 333 183 190 235 253 305 335 161 119 246 174 149 167 149 157 121 123 143 105 192 162 202 211 207 190 198 173 191 158 115 95 143 166 228 192 201 204 185 188 151 131 113 101 86
339 341 180 168 244 313 318 127 147 209 246 180 183 171 167 154 140 170 181 189 183 172 184 163 193 184 150 146 144 160 145 143 182 209 225 182 196 33 123 141 149 140 122 105 90
330 325 244 245 317 337 131 345 202 222 229 332 150 153 185 144 171 172 167 192 223 164 157 176 207 187 183 190 185 182 185 175 195 197 179 145 212 160 121 117 124 125 120 106 87
325 109 281 296 240 138 166 196 250 253 331 352 107 158 195 186 146 161 186 200 198 194 190 185 208 92 114 140 165 201 214 159 109 103 154 150 87 132 142 137 135 134 126 114 98
88 121 348 350 152 128 211 203 207 205 98 352 238 198 190 185 167 177 179 190 196 192 186 177 161 259 137 101 258 195 175 189 166 194 212 221 215 201 179 169 158 151 139 126 110
68 57 340 98 109 176 214 214 195 109 122 60 1 306 264 182 189 193 188 122 110 153 124 141 136 161 158 17 185 173 191 201 194 193 212 207 224 38 175 168 163 153 145 135 117
48 71 337 47 162 233 222 222 299 318 351 212 149 2 324 338 191 192 196 146 348 173 164 156 113 149 205 1 34 86 190 197 210 211 175 179 204 336 166 152 143 144 142 133 121
51 73 1 81 196 221 220 283 21 266 271 194 222 221 154 260 207 140 143 358 76 134 158 165 145 134 124 261 310 181 20 42 106 79 198 216 201 86 116 126 135 138 144 140 131
39 167 345 98 121 223 204 221 217 256 254 278 225 172 139 203 44 156 145 297 337 112 80 105 87 182 206 164 131 165 102 58 131 204 188 201 157 174 151 144 145 143 144 147 142
25 83 26 256 228 267 232 168 200 198 188 213 239 220 177 198 175 180 144 156 68 75 86 104 123 101 60 69 90 90 77 71 132 116 202 167 162 178 167 158 159 154 152 162 171
48 16 352 290 303 279 223 215 216 199 183 218 232 196 192 216 213 193 170 189 173 154 105 56 127 108 67 67 90 98 64 80 88 100 90 123 98 155 143 136 149 157 169 193 199
2 344 287 338 347 259 259 275 227 161 48 240 181 136 144 103 106 109 121 101 117 148 150 143 145 149 152 131 112 164 80 67 103 69 132 165 152 151 157 165 170 179 193 212 208